Find Starlink 6365

NORAD ID: 57237 Int'l Des: 2023-094 Owner: SPXS Country: US Constellation: starlink operational
LEOCIRCULAR

リアルタイム位置

3D地球を読み込み中...

Starlink 6365について

説明を読み込み中...

次回通過

Passes for default location (London). Set your location on the main map for personalized predictions.

高度履歴

Loading altitude history...

軌道要素

1 57237U 23094V 26122.34826560 -.00000401 00000-0 -50392-5 0 9990
2 57237 43.0037 87.5306 0001329 263.1012 96.9688 15.27573037155324
Epoch: May 2, 2026 • Age: 12 hours

現在のステータス

高度 490.5 km
速度 7.62 km/s
衛星直下点 -30.31°S, 137.5°E
打ち上げ日 Jul 7, 2023
運用期間 2.8 years
タイプ internet

技術仕様

分類 Payload
質量 305.00 kg
乾燥質量 290.00 kg
総質量 305.00 kg
長さ 0.20 m
直径 2.80 m
スパン 9.00 m
形状 Box + pan
製造者 SPXS
バスタイプ Starlink
フェーズステータス In Orbit
所有者/国 SPXS/US

Most Searched